"Pseudo-MPEC" for P112dH8

Created 2020 Jul 1 20:07:05 UT using Find_Orb

Click here for an explanation of pseudo-MPECs

 
 Astrometry: 
     P112dH8  C2020 06 28axtZma6gR,6OF=ndc2c69_#r(Zv9%u#IAstrometry5Kd%l=2(FXF51
     P112dH8  C2020 06 28y:Bbo/K+d/tlCp_HF:I)+4.wQ@YQRXFuu;^FF`e/51,_qU_e5/n@F51
     P112dH8  C2020 06 28CqNwPYOb%$]@b^g#IP8Z]w+l]redacted;J'F!CurKr*G0*h:KE=F51
     P112dH8 ^C2020 06 29.59495522 40 34.521-22 29 21.29   ~6TJb 21.75GVNEOCP568
     P112dH8 ^C2020 06 29.59593222 40 34.724-22 29 19.03   ~6TJb 21.68GVNEOCP568
     P112dH8  C2020 06 30]Q_5]QL-2r3o!_@s;$tY45sCODhlFD_o[jABmHi#(\PC`%#OY8BFF51
     P112dH8  C2020 06 30E4m%2,tGwojSlCXpK:oclickT%L]__;`,:OS?;_mc6b-j$yg\I8PF51
     P112dH8  C2020 06 30Ja_)gvh,\^FBxOOrkhereh?T%\aI::6Qd('hD@q1=:qSxruPG$8lF51
     P112dH8  C2020 07 01BFK$-t0o@9Q.]KYHhs@AK8pV_tXRATxl2`g+bQ(j+j'WIPywJubkF51
     P112dH8  C2020 07 012!@E-;y,-2FN=bqjJW4Rh7\gh,kH.##(H1Cq*h=Y+%9VI=g]IUN+F51
     P112dH8  C2020 07 01w=k9.9!eq]h(Dye2xqu7for'D.o[X$/c!L/o4HJTsexplanationF51

Station data:
(568) Mauna Kea  (N19.826116 W155.472200)  US/Hawaii.
(F51) Pan-STARRS 1, Haleakala  (N20.707235 W156.255910)  US/Hawaii.
   Observers N. Primak, A. Schultz, S. Watters, J. Thiel, T. Goggia. Measurer
   PS1 Science Consortium. 1.8-m Ritchey-Chrétien + CCD.

Orbital elements:  P112dH8
   Perihelion 2020 Jul 25.443811 +/- 0.271 TT = 10:39:05 (JD 2459055.943811)
Epoch 2020 Jul  1.0 TT = JDT 2459031.5   Earth MOID: 0.1592   AutoNEOCP
M 352.26626716 +/- 1.0              (J2000 ecliptic)
n   0.31638818 +/- 0.0404           Peri.  355.35701 +/- 0.34
a   2.13299194 +/- 0.182            Node   317.44280 +/- 0.6
e   0.4499476 +/- 0.0422            Incl.    6.64622 +/- 0.30
P   3.12                   H 22.6   G  0.15   U 10.6  
q 1.17325726 +/- 0.0108    Q 3.09272661 +/- 0.387
From 11 observations 2020 June 28-July 1; mean residual 0".15
Residuals in arcseconds: 
200628 F51  .16-  .07+    200629 568  .08-  .05-    200701 F51  .31+  .08+    
200628 F51  .02+  .04+    200630 F51  .19+  .01-    200701 F51  .17-  .24-    
200628 F51  .24+  .13-    200630 F51  .21-  .22+    200701 F51  .11-  .01-    
200629 568  .08-  .05-    200630 F51  .09+  .14+    

Ephemerides (geocentric):
Date (UTC) HH   RA              Dec         delta   r     elong  mag " sig PA
---- -- -- --  -------------   -----------  ------ ------ -----  --- ---- ---
2020 07 01 20  22 48 42.480   -21 00 36.10  .28663 1.1997 123.7 22.0 1.61 151
2020 07 01 21  22 48 51.461   -20 58 54.99  .28651 1.1996 123.7 22.0 1.63 150
2020 07 01 22  22 49 00.438   -20 57 13.79  .28640 1.1995 123.7 22.0 1.65 150
2020 07 01 23  22 49 09.412   -20 55 32.51  .28628 1.1994 123.7 22.0 1.68 149
2020 07 02 00  22 49 18.381   -20 53 51.15  .28616 1.1993 123.7 22.0 1.70 148
2020 07 02 01  22 49 27.346   -20 52 09.70  .28605 1.1992 123.7 22.0 1.73 148
2020 07 02 02  22 49 36.308   -20 50 28.17  .28593 1.1991 123.7 22.0 1.76 147
2020 07 02 03  22 49 45.265   -20 48 46.56  .28581 1.1991 123.7 22.0 1.78 146
2020 07 02 04  22 49 54.219   -20 47 04.86  .28570 1.1990 123.7 22.0 1.81 146
2020 07 02 05  22 50 03.168   -20 45 23.08  .28558 1.1989 123.7 22.0 1.84 145
2020 07 02 06  22 50 12.114   -20 43 41.21  .28547 1.1988 123.7 22.0 1.87 145
2020 07 02 07  22 50 21.055   -20 41 59.27  .28535 1.1987 123.7 22.0 1.90 144
2020 07 02 08  22 50 29.993   -20 40 17.24  .28524 1.1986 123.7 22.0 1.93 143
2020 07 02 09  22 50 38.926   -20 38 35.13  .28512 1.1985 123.7 22.0 1.96 143
2020 07 02 10  22 50 47.856   -20 36 52.93  .28501 1.1984 123.7 22.0 2.00 142
2020 07 02 11  22 50 56.781   -20 35 10.65  .28489 1.1983 123.7 22.0 2.03 142
2020 07 02 12  22 51 05.703   -20 33 28.29  .28478 1.1983 123.7 22.0 2.07 141
2020 07 02 13  22 51 14.620   -20 31 45.85  .28466 1.1982 123.7 22.0 2.10 140
2020 07 02 14  22 51 23.533   -20 30 03.33  .28455 1.1981 123.7 22.0 2.14 140
2020 07 02 15  22 51 32.442   -20 28 20.72  .28444 1.1980 123.7 22.0 2.17 139
2020 07 02 16  22 51 41.347   -20 26 38.04  .28432 1.1979 123.7 22.0 2.21 139
2020 07 02 17  22 51 50.248   -20 24 55.27  .28421 1.1978 123.7 22.0 2.25 138
2020 07 02 18  22 51 59.145   -20 23 12.42  .28410 1.1977 123.7 22.0 2.29 138
2020 07 02 19  22 52 08.038   -20 21 29.49  .28398 1.1976 123.7 22.0 2.33 137
2020 07 02 20  22 52 16.927   -20 19 46.48  .28387 1.1975 123.7 22.0 2.37 137
2020 07 02 21  22 52 25.811   -20 18 03.38  .28376 1.1975 123.7 22.0 2.41 137
2020 07 02 22  22 52 34.692   -20 16 20.21  .28365 1.1974 123.6 22.0 2.45 136
2020 07 02 23  22 52 43.568   -20 14 36.95  .28353 1.1973 123.6 22.0 2.49 136
2020 07 03 00  22 52 52.440   -20 12 53.62  .28342 1.1972 123.6 22.0 2.54 135
2020 07 03 01  22 53 01.309   -20 11 10.20  .28331 1.1971 123.6 22.0 2.58 135
2020 07 03 02  22 53 10.172   -20 09 26.71  .28320 1.1970 123.6 22.0 2.62 134
2020 07 03 03  22 53 19.032   -20 07 43.13  .28309 1.1969 123.6 22.0 2.67 134
2020 07 03 04  22 53 27.888   -20 05 59.47  .28298 1.1968 123.6 22.0 2.72 134
2020 07 03 05  22 53 36.739   -20 04 15.73  .28286 1.1968 123.6 22.0 2.76 133
2020 07 03 06  22 53 45.586   -20 02 31.92  .28275 1.1967 123.6 22.0 2.81 133
2020 07 03 07  22 53 54.429   -20 00 48.02  .28264 1.1966 123.6 22.0 2.86 133
2020 07 03 08  22 54 03.268   -19 59 04.05  .28253 1.1965 123.6 22.0 2.91 132
2020 07 03 09  22 54 12.103   -19 57 19.99  .28242 1.1964 123.6 22.0 2.96 132
2020 07 03 10  22 54 20.933   -19 55 35.86  .28231 1.1963 123.6 22.0 3.01 132
2020 07 03 11  22 54 29.760   -19 53 51.64  .28220 1.1962 123.6 22.0 3.06 131
2020 07 03 12  22 54 38.581   -19 52 07.35  .28209 1.1962 123.6 22.0 3.11 131
2020 07 03 13  22 54 47.399   -19 50 22.98  .28198 1.1961 123.6 22.0 3.16 131
2020 07 03 14  22 54 56.213   -19 48 38.53  .28188 1.1960 123.6 22.0 3.22 130
2020 07 03 15  22 55 05.022   -19 46 54.00  .28177 1.1959 123.6 22.0 3.27 130
2020 07 03 16  22 55 13.827   -19 45 09.39  .28166 1.1958 123.6 22.0 3.33 130
2020 07 03 17  22 55 22.628   -19 43 24.71  .28155 1.1957 123.6 22.0 3.38 130
2020 07 03 18  22 55 31.424   -19 41 39.95  .28144 1.1956 123.6 22.0 3.44 129
2020 07 03 19  22 55 40.216   -19 39 55.11  .28133 1.1956 123.6 22.0 3.49 129